User: anonymous   Login
Location: Unspecified
(0.0000°N, 0.0000°E)
Time: 19:31:03
(UTC+00:00)
Language:

GONETS M03 - Orbit

View from above orbital plane
View from above orbital plane
View from above satellite
View from above satellite

Ground track
Ground track

The orbit data is extracted from the following two-line orbital elements,

1 38734U 12041B   21025.72921855  .00000013  00000-0  17915-4 0  9993
2 38734  82.4733 217.6015 0016702  51.0732 309.1831 12.44816424385816
Epoch (UTC): 25 January 2021 17:30:04
Eccentricity: 0.0016702
inclination: 82.4733°
perigee height: 1473 km
apogee height: 1499 km
right ascension of ascending node: 217.6015°
argument of perigee: 51.0732°
revolutions per day: 12.44816424
mean anomaly at epoch: 309.1831°
orbit number at epoch: 38581

The dashed part of the orbit path shows where the satellite is in the earth's shadow,  

DLR